EST,Max TemperatureF,Mean TemperatureF,Min TemperatureF,Max Dew PointF,MeanDew PointF,Min DewpointF,Max Humidity, Mean Humidity, Min Humidity, Max Sea Level PressureIn, Mean Sea Level PressureIn, Min Sea Level PressureIn, Max VisibilityMiles, Mean VisibilityMiles, Min VisibilityMiles, Max Wind SpeedMPH, Mean Wind SpeedMPH, Max Gust SpeedMPH,PrecipitationIn, CloudCover, Events, WindDirDegrees
2013-11-1,75,66,56,59,49,42,86,63,39,29.75,29.66,29.45,10,9,1,37,9,62,0.38,6,Rain,237
2013-11-2,59,53,46,43,39,35,80,62,43,30.06,29.87,29.72,10,10,10,14,6,17,T,5,,262
2013-11-3,54,45,35,40,36,32,92,71,50,30.37,30.25,30.07,10,10,10,7,2,10,0.00,5,,349
2013-11-4,62,48,33,38,35,32,96,69,42,30.45,30.39,30.35,10,10,10,8,3,12,0.00,0,,118
2013-11-5,66,54,42,37,35,32,76,55,34,30.47,30.38,30.30,10,10,10,9,3,13,0.00,0,,135
2013-11-6,75,60,45,58,44,29,71,56,41,30.28,30.12,29.98,10,10,4,17,6,24,0.02,6,Rain,192
2013-11-7,61,48,34,61,42,24,100,71,42,30.25,30.10,29.96,10,8,2,23,7,31,0.57,6,Rain,288
2013-11-8,53,43,33,31,26,22,82,56,30,30.39,30.30,30.23,10,10,10,14,4,36,0.00,1,,239
2013-11-9,63,46,29,29,25,17,85,51,17,30.30,30.19,30.10,10,10,10,17,7,25,0.00,0,,208
2013-11-10,54,44,33,34,28,23,70,51,32,30.35,30.25,30.13,10,10,10,16,6,25,0.00,0,,273
2013-11-11,61,44,27,33,24,16,92,56,19,30.34,30.22,30.08,10,10,10,9,3,14,0.00,3,,224
2013-11-12,55,41,27,41,28,19,100,72,43,30.62,30.39,30.12,10,8,1,18,9,28,0.19,6,Rain-Snow,339
2013-11-13,40,31,21,25,20,17,92,66,40,30.66,30.58,30.46,10,10,10,10,3,15,0.00,1,,221
2013-11-14,55,41,27,23,19,15,75,49,22,30.44,30.35,30.21,10,10,10,13,5,17,0.00,0,,197
2013-11-15,58,44,30,44,30,19,86,59,32,30.26,30.20,30.15,10,10,8,14,4,21,0.07,4,Rain,189
2013-11-16,66,54,41,54,46,41,100,82,63,30.19,30.13,30.01,10,6,0,13,3,16,0.00,5,Fog,135
2013-11-17,65,61,56,60,53,47,93,78,63,30.01,29.84,29.66,10,8,0,30,7,43,0.60,7,Fog-Rain,194
2013-11-18,59,51,42,47,35,25,72,54,35,30.16,29.99,29.83,10,10,10,20,9,29,0.00,0,,264
2013-11-19,42,37,32,28,26,24,75,62,49,30.35,30.29,30.16,10,10,10,10,5,18,0.00,4,,20
2013-11-20,56,43,30,29,26,24,78,57,35,30.36,30.31,30.27,10,10,10,9,4,13,0.00,0,,89
2013-11-21,61,50,38,41,34,25,64,55,45,30.38,30.30,30.21,10,10,10,6,3,,0.00,5,,133
2013-11-22,59,51,43,57,49,36,93,77,61,30.30,30.21,30.14,10,6,2,16,6,24,0.29,8,Rain,263
2013-11-23,44,36,27,35,24,13,79,55,30,30.48,30.35,30.27,10,10,9,20,9,28,T,6,,318
2013-11-24,30,24,18,16,8,4,68,51,34,30.67,30.58,30.48,10,10,9,16,6,23,T,2,Snow,337
2013-11-25,43,30,17,32,14,10,80,55,29,30.57,30.39,30.24,10,10,5,15,4,23,0.01,3,Snow,160
2013-11-26,37,35,32,36,33,30,100,95,89,30.22,30.03,29.83,10,2,0,12,4,17,0.89,8,Fog-Rain-Snow,359
2013-11-27,32,28,24,30,24,15,100,79,58,30.30,30.00,29.85,10,6,1,18,9,29,0.10,8,Snow,302
2013-11-28,34,26,18,20,17,14,84,69,54,30.49,30.41,30.32,10,10,10,12,4,15,0.00,0,,210
2013-11-29,44,31,18,24,21,16,92,68,43,30.65,30.58,30.49,10,10,10,6,1,8,0.00,0,,81
2013-11-30,54,38,22,29,25,20,96,66,35,30.53,30.40,30.25,10,10,7,13,3,17,0.00,0,,182